This is the latest recevied weather packets stored in our database for station/object JA3QOS-13. If no packets are shown the sender has not sent any weather packets the latest 10 day(s).
| Time | Temp. | Humidity | Pressure | Rain* | Wind** | Luminosity | Snow |
|---|---|---|---|---|---|---|---|
| 1788026403 | 22.78° C | 99% | 1010.2 hPa | 0 mm | - | - | - |
| 1788024604 | 23.33° C | 99% | 1010.4 hPa | 0 mm | - | - | - |
| 1788022804 | 23.33° C | 99% | 1010.3 hPa | 0 mm | - | - | - |
| 1788021005 | 23.33° C | 99% | 1010.8 hPa | 0 mm | - | - | - |
| 1788019203 | 23.33° C | 99% | 1010.6 hPa | 0 mm | - | - | - |
| 1788017404 | 23.33° C | 99% | 1010.8 hPa | 0 mm | - | - | - |
| 1788015606 | 23.33° C | 99% | 1010.8 hPa | 0 mm | - | - | - |
| 1788013804 | 23.33° C | 99% | 1011 hPa | 0 mm | - | - | - |
| 1788012004 | 23.33° C | 99% | 1010.9 hPa | 0 mm | - | - | - |
| 1788010204 | 23.33° C | 99% | 1010.9 hPa | 0 mm | - | - | - |
| 1788008405 | 23.33° C | 99% | 1010.8 hPa | 0 mm | - | - | - |
| 1788006604 | 23.33° C | 99% | 1010.9 hPa | 0 mm | - | - | - |
| 1788004804 | 23.33° C | 99% | 1010.9 hPa | 0 mm | - | - | - |
| 1788003003 | 22.78° C | 99% | 1010.9 hPa | 0 mm | - | - | - |
| 1788001203 | 23.33° C | 99% | 1010.6 hPa | 1.02 mm | - | - | - |
| 1787999403 | 23.33° C | 99% | 1010.6 hPa | 2.79 mm | - | - | - |
| 1787997603 | 23.89° C | 99% | 1010.4 hPa | 1.78 mm | - | - | - |
| 1787995804 | 24.44° C | 97% | 1010.1 hPa | 0 mm | - | - | - |
| 1787994004 | 25° C | 97% | 1010.1 hPa | 0 mm | - | - | - |
| 1787992203 | 25.56° C | 97% | 1010 hPa | 0 mm | - | - | - |
| 1787990404 | 26.67° C | 94% | 1009.8 hPa | 0 mm | - | - | - |
| 1787988604 | 26.11° C | 94% | 1009.6 hPa | 0 mm | - | - | - |
| 1787986804 | 27.22° C | 92% | 1009.7 hPa | 0 mm | - | - | - |
| 1787985004 | 25.56° C | 99% | 1009.7 hPa | 0 mm | - | - | - |
| 1787983204 | 25.56° C | 99% | 1009.6 hPa | 0 mm | - | - | - |
* Rain latest hour (hover to see other rain measurements)
** Current wind speed in m/s (hover to see current wind gust speed)